Вернуться в каталог

NINGXIA-1 3

АктивенНаукаLEO
NORAD 44781·PAYLOAD·🇨🇳 China

Запущен Nov 13, 2019 с Taiyuan Satellite Launch Center

Loading…

Ближайшие Пролёты (ближайшие 24 часа)

TLE

СвежийSource: Space-Track

Эпоха: Sep 14, 2026, 15:37 UTC

1 44781U 19076C   26257.65078235 -.00000055  00000-0  48519-4 0  9997
2 44781  45.0000 138.5602 0009958 211.5694 148.4543 14.02012291350413

Отслеживайте NINGXIA-1 3 в реальном времени с AllMySat

Download on the App Store